Location: Drummondville
(45.8830°N, 72.4830°W)
Time: 00:48:04
(UTC-05:00)

Envisat - Pass Details

Date: 15 November 2017
Orbit: 764 x 766 km, 98.2° (Epoch: 21 November)

Event Time Altitude Azimuth Distance (km) Brightness Sun altitude
Exits shadow 17:58:17 10° 24° (NNE) 2,301 5.2 -17.4°
Drops below altitude 10° 17:58:24 10° 23° (NNE) 2,327 5.2 -17.4°
Sets 18:01:33 0° 2° (N) 3,243 6.1 -17.9°
